Terminal Aerodrome Forecast
Issued by NWS Honolulu, HI

Home | Current Version | Previous Version | Text Only | Print | Product List | Glossary On
Versions: 1 2 3 4 5 6 7 8 9 10 11 12 13 14 15 16 17 18 19 20 21 22 23 24 25 26 27 28 29 30 31 32 33 34 35 36 37 38 39 40 41 42 43 44 45 46 47
000
FTPA31 PHFO 180542
TAFHNL
TAF
PHNL 180542Z 1806/1912 34005KT P6SM VCSH SCT025 BKN045
     FM181000 34005KT P6SM VCSH BKN035
     FM182000 19010KT 6SM -SHRA BKN025
     FM190500 03008KT 5SM -SHRA BKN025=

USA.gov is the U.S. government's official web portal to all federal, state and local government web resources and services.